Location: Newark
(44.6768°N, 22.5302°E)
Time: 21:45:37
(UTC+00:00)

CAS-6 - Pass Details

Date: 02 July 2022
Orbit: 613 x 635 km, 97.9° (Epoch: 07 August)

Event Time Altitude Azimuth Distance (km) Brightness Sun altitude
Exits shadow 21:57:50 15° 248° (WSW) 1,714 ? -21.8°
Maximum altitude 21:59:05 16° 269° (W) 1,626 ? -21.9°
Drops below altitude 10° 22:01:50 10° 308° (NW) 2,002 ? -21.9°
Sets 22:04:48 0° 330° (NNW) 2,909 ? -22.0°
